Temperature
16 17 16 17 17 16 15 15 15 16 16 17 18 18 19 19 19 19 19 19 20 20 20 20 20 20 19 19 19 18 18 18 18 18 17 17 17 16 16 16 16 15 15 15
16 17 16 16 17 16 16 16 16 16 17 17 19 19 19 19 19 19 19 20 20 20 20 20 20 20 19 19 19 19 18 18 18 18 17 17 17 16 16 16 15 15 15 15
15 16 16 16 16 16 16 16 16 16 17 18 18 18 19 19 19 20 20 20 20 20 20 21 21 20 20 19 19 19 18 18 18 18 17 17 17 16 16 16 15 15 15 15
14 16 16 17 17 18 17 17 17 17 17 18 18 20 20 20 20 20 21 21 21 21 21 21 21 20 20 19 19 19 18 18 18 18 17 17 17 16 16 16 16 15 15 15
14 15 15 17 17 17 17 17 17 17 18 18 19 19 19 21 21 21 21 21 21 21 21 21 21 20 20 19 19 19 18 18 18 18 17 17 17 17 16 16 16 15 15 15
14 15 15 17 18 18 18 17 18 18 17 18 18 17 18 21 21 22 22 22 22 21 21 21 21 20 20 20 19 19 19 19 18 18 17 17 17 17 16 16 16 15 15 14
14 15 15 17 18 18 17 18 19 19 19 18 18 19 21 21 21 22 22 22 22 21 21 21 21 20 20 20 20 20 19 19 18 18 17 17 17 16 16 16 15 15 15 14
13 14 16 17 17 17 18 19 20 20 20 19 20 21 21 21 22 22 22 22 22 21 21 21 21 21 21 20 20 19 19 18 18 18 17 17 16 16 16 15 15 15 14 14
15 16 17 18 18 19 20 19 20 20 20 20 20 20 21 21 21 22 22 22 22 21 21 21 21 21 21 20 20 19 19 18 18 18 17 17 16 16 16 15 15 15 14 14
14 15 16 18 19 20 20 20 20 20 20 20 20 21 21 21 21 21 21 21 21 21 21 21 20 20 20 20 19 19 19 18 18 17 17 17 16 16 16 15 15 15 15 14
14 15 17 18 19 19 20 20 20 20 20 21 21 21 21 21 21 21 21 21 21 21 21 21 20 20 20 19 19 19 18 18 17 17 17 16 16 16 16 15 15 15 15 14
15 16 16 18 19 19 20 20 20 20 20 20 20 20 20 20 21 21 21 21 21 20 20 20 20 20 19 19 19 18 18 18 17 17 17 16 16 15 15 15 15 14 14 14
17 17 18 18 19 19 20 20 20 20 20 20 20 20 20 20 20 20 20 20 20 20 20 20 20 20 19 19 19 18 18 18 17 17 16 16 16 15 15 15 14 14 14 13
17 17 17 18 18 19 19 19 19 20 20 20 20 20 20 20 20 20 20 20 20 20 19 19 19 19 19 19 18 18 18 17 17 17 17 16 16 15 15 15 15 14 14 13
17 17 17 17 18 18 18 19 19 19 19 19 19 19 19 19 19 19 19 19 19 19 19 19 19 19 18 18 18 18 17 17 17 17 16 16 16 15 15 15 14 14 14 13
16 17 17 17 17 17 18 18 18 18 18 18 18 18 18 18 18 18 18 18 19 18 18 18 18 18 18 18 18 17 17 17 17 16 16 16 15 15 15 14 14 14 13 13
15 16 16 16 17 17 17 17 17 17 18 18 18 18 18 18 18 18 18 18 18 18 18 18 18 18 17 17 17 17 17 16 16 16 16 15 15 15 14 14 14 13 13 13
16 16 16 16 16 16 16 16 17 17 17 17 17 17 17 17 17 17 17 17 17 17 17 17 17 17 17 17 16 16 16 16 16 15 15 15 15 14 14 14 13 13 13 12
15 15 15 16 16 16 16 16 16 16 16 16 16 16 17 17 17 17 16 16 17 16 16 16 16 16 16 16 16 16 16 15 15 15 15 14 14 14 13 13 13 12 12 12
14 14 15 15 15 15 15 15 15 15 15 15 16 16 16 16 16 16 16 16 16 16 16 16 16 16 16 15 15 15 15 15 15 14 14 14 13 13 13 12 12 12 11 11
13 14 14 14 14 14 14 14 15 15 15 15 15 15 15 15 15 15 15 15 15 15 15 15 15 15 15 15 15 15 14 14 14 14 13 13 13 12 12 12 11 11 11 10
13 13 13 13 14 14 14 14 14 14 14 14 14 14 14 14 14 14 14 14 14 14 14 14 14 14 14 14 14 14 13 13 13 13 12 12 12 11 11 11 11 10 10 10
12 12 12 12 13 13 13 13 13 13 13 13 13 13 13 13 13 14 13 13 13 13 13 13 13 13 13 13 13 13 13 12 12 12 12 11 11 11 10 10 10 9 9 9
11 11 11 12 12 12 12 12 12 12 12 12 12 12 12 13 13 13 13 13 13 13 13 13 13 13 13 13 12 12 12 12 11 11 11 10 10 10 9 9 9 9 8 8
10 11 11 11 11 11 11 11 11 11 11 11 12 12 12 12 12 12 12 12 12 12 12 12 12 12 12 12 12 11 11 11 10 10 10 9 9 9 9 8 8 8 8 7
10 10 10 10 10 10 10 10 10 11 11 11 11 11 11 11 11 11 11 11 11 11 11 11 11 11 11 11 11 10 10 10 9 9 9 9 8 8 8 7 7 7 7 6
9 9 9 9 9 9 9 9 10 10 10 10 10 10 10 10 10 10 10 10 10 10 10 10 10 10 10 10 10 9 9 9 9 9 8 8 7 7 7 7 6 6 6 5
Wind_Speed
6 5 5 6 6 8 9 9 9 9 9 12 9 7 6 4 5 6 9 10 12 13 12 11 11 10 10 10 9 9 9 9 8 7 7 7 6 6 5 5 5 5 5 4
3 4 5 5 7 8 10 8 9 8 11 10 7 5 4 5 7 8 10 12 12 13 13 13 13 12 11 11 10 10 10 9 8 8 8 7 7 6 6 5 5 5 4 4
3 2 1 6 9 10 7 8 9 11 13 6 5 6 7 8 9 10 11 11 13 14 15 14 14 13 14 12 10 11 10 9 9 9 9 8 8 7 7 6 5 5 4 4
3 2 6 8 5 9 9 9 11 10 9 8 9 7 6 7 8 9 10 11 12 12 12 12 12 11 11 11 11 11 10 10 10 10 9 8 8 8 6 5 5 5 4 4
4 4 6 8 5 6 7 8 9 11 11 8 5 1 5 6 8 10 10 10 10 11 11 11 12 13 12 12 11 11 11 11 11 11 10 10 9 8 6 6 5 4 4 5
5 4 6 8 4 3 4 6 7 9 10 7 5 2 6 5 5 6 7 7 8 8 8 10 11 12 14 13 13 14 13 12 11 11 12 11 10 8 5 5 6 6 5 4
5 5 7 8 4 5 4 7 4 6 7 6 8 8 5 3 3 4 5 6 8 9 10 11 12 14 14 13 14 13 11 10 10 11 11 10 9 7 7 7 6 6 5 3
6 4 8 5 6 7 8 4 3 4 5 6 6 5 3 3 3 3 4 5 8 9 9 8 11 14 13 13 11 10 11 11 11 10 10 9 9 7 7 8 7 6 5 3
9 8 6 3 6 5 3 3 4 3 4 4 4 4 3 2 2 2 4 5 6 8 9 8 11 13 14 11 10 11 11 11 10 9 8 9 10 10 7 7 7 6 5 5
4 6 5 5 4 3 3 4 4 3 3 3 4 3 3 2 2 3 3 5 6 8 9 9 9 10 10 10 11 12 11 10 9 10 8 8 7 8 8 8 7 7 6 6
4 5 4 4 3 3 2 1 1 1 1 3 3 2 3 3 3 3 3 4 6 7 8 8 9 9 9 10 12 11 10 10 9 9 9 8 7 7 8 8 9 9 8 7
6 6 4 5 4 2 1 1 1 1 2 1 3 3 3 3 3 3 4 5 5 5 6 6 8 8 8 10 12 12 10 9 8 7 7 7 7 4 3 4 8 10 9 9
5 3 3 4 3 1 1 0 0 1 2 1 1 3 3 3 3 4 5 5 6 7 6 7 7 7 8 9 11 12 11 10 8 8 8 8 8 7 5 2 4 6 8 10
3 1 1 2 2 1 1 1 2 4 3 3 2 3 4 4 4 4 4 4 5 6 6 6 7 6 7 9 10 9 9 10 9 8 8 8 8 7 7 7 5 2 4 7
3 2 3 1 1 2 2 3 5 4 4 4 4 4 4 5 4 3 3 4 6 6 5 6 6 5 6 8 9 9 8 7 7 7 6 6 6 6 5 6 5 3 2 2
1 2 3 3 2 2 3 4 4 2 2 3 3 4 3 4 4 5 4 6 7 6 5 5 5 4 6 8 8 7 6 9 9 7 6 6 6 6 5 5 5 4 4 4
3 2 2 2 1 1 1 1 2 1 1 2 2 3 5 5 6 5 4 4 4 4 4 4 4 5 6 7 8 6 6 7 9 7 6 6 6 6 6 6 5 5 5 5
3 3 4 5 4 2 2 2 2 2 1 1 3 4 5 5 4 3 3 4 5 4 3 2 4 6 6 6 6 6 6 6 6 6 6 5 5 5 5 5 6 5 3 3
2 2 2 2 2 3 2 2 2 2 2 3 4 4 4 3 3 3 4 5 5 3 1 2 6 6 5 6 7 5 6 6 5 5 5 6 5 4 4 5 5 4 4 4
3 3 4 4 3 3 3 2 2 3 2 3 5 5 4 3 3 4 5 4 1 1 2 4 5 5 5 6 7 5 6 6 6 5 5 5 5 4 4 4 4 4 4 4
3 3 4 4 3 3 3 3 3 3 3 3 4 4 3 3 3 4 5 3 2 1 2 5 4 4 4 5 7 5 5 5 5 5 5 5 4 4 4 4 4 4 4 3
3 4 3 3 3 3 3 3 3 3 4 4 4 4 4 4 3 3 3 2 1 2 3 2 3 4 6 7 5 5 5 5 5 4 4 4 5 4 4 4 3 3 3 3
3 3 3 3 3 2 3 3 3 3 3 3 3 3 3 2 2 3 1 1 1 2 2 2 3 6 7 5 4 5 5 5 5 4 4 4 4 4 4 4 4 3 3 3
4 4 3 2 3 4 3 2 2 3 3 3 2 2 3 3 2 1 1 1 2 3 2 2 5 6 7 4 4 4 4 4 4 4 3 3 3 4 4 4 3 3 3 3
3 4 4 4 4 2 2 2 3 4 4 3 3 3 2 2 1 0 1 1 3 4 3 3 5 6 4 3 3 3 3 3 3 4 4 3 3 3 3 3 3 3 3 3
3 3 2 2 1 1 2 2 2 2 2 3 3 3 3 2 3 2 2 2 3 4 3 2 3 4 3 3 3 3 3 3 3 3 4 3 3 3 3 3 3 3 3 3
4 3 3 3 3 2 2 2 2 2 2 2 1 2 2 2 3 3 3 3 3 3 3 3 2 3 3 3 3 3 3 3 3 3 3 3 3 3 3 3 3 3 3 2
Wind_Direction
217 212 185 205 206 189 194 200 209 236 245 261 263 258 250 223 199 184 180 182 184 183 183 180 177 177 177 176 170 166 164 167 173 166 157 151 151 150 144 144 149 145 136 132
236 229 212 238 235 215 217 218 226 246 261 256 250 238 237 220 205 199 194 191 189 185 182 183 183 180 177 176 173 167 170 174 166 156 155 157 156 149 143 143 141 139 145 146
231 259 175 260 231 214 213 212 201 227 243 251 253 244 231 221 208 205 203 194 189 188 188 188 187 181 182 179 169 169 172 168 163 161 161 163 158 152 155 155 147 146 153 151
163 131 238 246 233 210 217 233 218 228 241 232 235 243 243 227 212 213 205 196 193 191 189 185 180 177 173 162 166 171 172 170 167 164 164 160 157 162 161 153 153 155 159 160
151 206 270 284 253 195 203 250 227 229 244 242 226 248 278 238 212 210 206 198 191 188 183 176 175 170 162 165 169 174 179 178 175 169 166 164 168 169 162 155 157 158 157 157
149 178 238 252 255 188 142 271 247 219 235 223 155 192 261 251 216 209 197 187 178 168 161 169 173 164 165 172 176 186 187 182 175 171 171 173 174 167 158 157 159 152 148 159
170 206 255 253 243 132 166 245 250 207 218 191 185 211 236 220 209 199 184 174 164 162 170 177 168 165 171 176 189 189 175 167 168 172 173 171 164 159 152 150 144 146 147 150
158 193 249 243 153 182 220 259 264 232 216 197 210 227 232 223 214 193 165 154 156 165 172 167 165 168 175 187 185 164 160 165 169 170 170 164 155 153 152 151 149 154 153 156
187 211 240 212 208 232 228 247 253 237 234 196 205 218 210 217 213 191 184 167 159 160 159 162 170 173 180 181 161 157 161 168 167 163 163 158 159 158 155 157 162 169 171 180
219 255 261 260 263 274 242 228 247 240 234 187 196 206 199 187 178 176 172 163 153 149 156 167 174 176 174 158 155 157 164 165 162 161 160 157 159 164 167 173 175 177 183 190
229 261 290 291 266 261 270 257 258 286 203 185 175 181 183 180 177 174 155 151 150 158 164 169 168 167 156 152 153 158 162 162 163 164 163 163 167 176 180 190 187 184 192 188
217 222 198 244 268 251 218 273 265 71 34 48 147 165 162 165 158 145 143 142 145 148 151 158 159 157 154 155 156 157 160 163 165 163 163 163 162 159 184 183 193 195 189 183
226 232 214 249 278 269 206 296 27 101 126 114 108 145 146 139 133 130 133 140 150 154 151 149 150 153 157 157 158 162 165 166 163 164 166 168 168 170 173 174 179 190 193 192
232 168 227 257 258 294 57 70 84 76 70 87 92 99 108 103 105 118 138 153 141 132 133 140 144 154 161 158 157 159 159 164 163 168 170 172 175 176 174 174 179 209 217 199
268 227 197 228 12 18 41 79 83 72 70 67 79 92 101 107 113 117 114 117 114 115 124 134 139 148 151 153 154 156 156 160 160 159 161 163 163 163 167 173 176 178 165 189
274 71 94 90 58 33 54 81 94 81 76 78 81 85 91 102 104 99 99 114 124 136 147 146 149 152 149 148 148 150 155 155 151 152 153 153 156 162 169 174 178 182 191 194
138 131 118 114 99 66 63 82 125 136 98 89 93 93 89 87 85 82 84 98 117 129 138 144 145 136 141 145 147 150 145 152 149 146 155 163 167 172 176 177 184 194 208 198
189 188 182 168 161 135 75 61 78 80 77 101 100 94 96 103 109 106 99 92 88 74 68 110 126 128 131 138 142 143 146 149 153 156 158 162 167 170 171 178 186 193 203 192
117 125 113 113 132 133 123 91 69 64 72 96 103 106 108 107 110 108 103 100 104 101 6 109 124 126 133 140 136 138 142 145 146 149 151 155 155 160 168 177 184 190 186 184
78 88 85 80 84 103 107 96 87 77 78 96 100 99 94 90 101 107 104 101 128 197 171 130 131 130 134 140 132 137 142 146 150 151 149 154 162 169 174 178 181 184 186 189
88 87 84 79 71 70 79 90 94 85 78 98 107 113 114 102 101 109 107 92 352 54 112 120 129 137 138 138 131 134 139 143 148 153 156 161 164 166 172 178 182 186 188 190
93 93 90 87 79 59 45 63 87 90 84 84 91 100 101 97 98 94 90 145 185 104 112 125 133 132 134 131 135 137 140 144 148 150 155 160 163 169 175 178 183 184 181 180
90 92 89 89 92 74 44 49 65 88 95 98 108 117 119 122 130 128 119 304 155 112 113 139 132 128 129 131 139 142 145 148 151 156 162 166 170 174 177 178 179 177 176 179
83 77 70 74 85 83 69 36 43 73 87 85 89 105 117 105 54 20 170 153 105 100 107 125 122 123 123 130 137 143 149 151 152 153 155 158 163 164 166 168 170 175 177 175
81 76 75 76 77 83 95 86 68 64 72 66 57 55 63 95 123 54 63 97 97 91 92 106 109 109 112 125 133 141 149 158 158 156 157 160 164 164 165 167 169 171 174 178
72 71 68 74 94 114 117 111 103 84 80 73 43 32 35 48 75 77 73 76 86 86 89 99 102 98 105 115 123 130 136 142 140 140 146 149 153 155 158 161 162 165 170 176
61 60 58 48 36 43 81 103 111 108 108 113 86 27 41 56 64 70 76 76 79 76 77 79 87 95 98 102 105 109 115 121 126 128 132 136 142 147 151 153 155 157 161 167
Height
1513 1510 1512 1513 1513 1515 1520 1521 1525 1518 1514 1504 1500 1498 1497 1497 1499 1500 1502 1505 1509 1513 1518 1523 1529 1534 1539 1544 1548 1552 1555 1558 1561 1564 1567 1569 1571 1572 1574 1575 1576 1577 1578 1579
1511 1508 1510 1511 1509 1510 1512 1511 1513 1511 1506 1495 1495 1494 1494 1495 1496 1497 1499 1501 1505 1509 1514 1519 1524 1530 1535 1540 1545 1549 1552 1556 1559 1562 1565 1567 1569 1571 1573 1574 1575 1576 1578 1578
1517 1510 1510 1515 1504 1503 1504 1501 1503 1505 1497 1491 1492 1491 1491 1491 1492 1493 1495 1497 1501 1505 1509 1514 1520 1525 1531 1536 1541 1545 1549 1553 1556 1560 1562 1565 1567 1569 1571 1572 1574 1575 1576 1577
1515 1515 1520 1503 1490 1491 1494 1492 1491 1490 1487 1487 1487 1487 1487 1487 1488 1489 1491 1494 1497 1501 1506 1511 1516 1522 1527 1533 1538 1542 1546 1549 1553 1557 1560 1563 1565 1567 1569 1570 1572 1573 1575 1576
1516 1517 1511 1496 1488 1488 1491 1490 1483 1484 1482 1482 1483 1485 1484 1483 1484 1485 1488 1491 1494 1498 1502 1508 1513 1518 1524 1529 1534 1538 1542 1545 1549 1553 1556 1559 1562 1564 1566 1568 1570 1571 1573 1574
1512 1514 1513 1495 1482 1481 1486 1490 1477 1477 1477 1478 1481 1487 1482 1480 1481 1483 1486 1489 1492 1496 1500 1505 1509 1515 1519 1524 1529 1533 1537 1542 1546 1550 1553 1556 1559 1561 1563 1565 1567 1569 1570 1572
1508 1509 1500 1483 1479 1481 1494 1486 1472 1472 1473 1475 1477 1478 1478 1478 1480 1481 1484 1486 1490 1493 1497 1501 1506 1511 1515 1520 1524 1529 1534 1538 1542 1546 1549 1553 1556 1558 1561 1563 1564 1566 1567 1569
1504 1507 1499 1475 1478 1481 1477 1471 1470 1470 1471 1472 1473 1474 1476 1477 1478 1480 1482 1484 1487 1491 1494 1498 1502 1507 1511 1516 1521 1526 1530 1534 1539 1542 1546 1549 1552 1555 1557 1559 1561 1563 1564 1565
1486 1485 1474 1472 1472 1471 1471 1470 1469 1468 1469 1471 1471 1472 1474 1476 1477 1479 1481 1483 1485 1488 1492 1496 1499 1504 1508 1513 1518 1522 1526 1530 1535 1539 1542 1545 1548 1551 1554 1556 1558 1559 1561 1562
1479 1474 1471 1470 1469 1469 1469 1468 1468 1467 1468 1469 1470 1471 1473 1474 1476 1478 1479 1481 1483 1486 1489 1492 1496 1501 1505 1510 1514 1519 1523 1527 1531 1535 1538 1542 1545 1548 1550 1552 1554 1556 1558 1559
1475 1470 1468 1467 1467 1467 1467 1467 1467 1466 1467 1467 1468 1469 1471 1472 1474 1476 1477 1479 1481 1484 1487 1490 1494 1498 1503 1507 1511 1516 1520 1524 1527 1531 1534 1538 1541 1544 1547 1549 1551 1553 1555 1557
1470 1465 1466 1466 1466 1466 1466 1465 1465 1465 1466 1467 1467 1468 1470 1471 1472 1474 1476 1478 1480 1483 1486 1489 1493 1496 1500 1505 1509 1513 1516 1520 1524 1527 1531 1534 1537 1540 1543 1546 1548 1550 1552 1553
1463 1463 1463 1463 1464 1464 1464 1464 1464 1465 1465 1466 1467 1468 1469 1470 1471 1473 1474 1477 1479 1482 1485 1488 1491 1494 1498 1502 1506 1510 1513 1517 1521 1524 1528 1531 1534 1536 1539 1542 1544 1546 1548 1549
1460 1461 1461 1461 1462 1463 1463 1463 1464 1464 1465 1466 1467 1467 1468 1469 1470 1472 1473 1476 1478 1481 1484 1487 1490 1493 1497 1500 1504 1508 1511 1515 1518 1521 1524 1527 1530 1533 1535 1538 1540 1541 1544 1545
1458 1459 1459 1460 1461 1461 1462 1463 1463 1464 1465 1466 1467 1467 1468 1469 1470 1472 1474 1476 1479 1481 1484 1486 1489 1492 1495 1498 1502 1505 1508 1512 1515 1518 1521 1524 1527 1529 1532 1534 1536 1538 1540 1541
1456 1457 1458 1459 1459 1460 1461 1462 1463 1464 1465 1465 1466 1467 1468 1469 1470 1472 1474 1476 1478 1480 1482 1485 1488 1491 1494 1497 1500 1503 1506 1509 1512 1515 1518 1521 1523 1526 1528 1530 1532 1533 1535 1537
1454 1455 1457 1457 1459 1460 1461 1462 1463 1464 1464 1465 1466 1467 1468 1469 1470 1472 1474 1476 1478 1480 1482 1484 1487 1490 1492 1495 1498 1501 1504 1507 1510 1512 1515 1517 1520 1522 1524 1526 1528 1529 1531 1533
1453 1454 1456 1457 1458 1459 1460 1462 1462 1463 1464 1465 1466 1467 1468 1469 1470 1472 1474 1476 1478 1479 1482 1484 1486 1488 1491 1493 1496 1499 1502 1504 1506 1509 1512 1514 1516 1518 1520 1522 1523 1525 1526 1528
1451 1453 1455 1456 1457 1458 1459 1461 1462 1463 1464 1465 1465 1467 1468 1469 1471 1472 1474 1475 1477 1478 1481 1483 1485 1487 1489 1492 1494 1497 1499 1501 1504 1506 1508 1510 1512 1514 1516 1517 1519 1520 1522 1523
1450 1452 1453 1455 1456 1458 1459 1460 1461 1462 1463 1464 1465 1466 1467 1469 1470 1472 1473 1474 1476 1478 1480 1481 1483 1485 1487 1490 1492 1494 1496 1498 1500 1502 1504 1506 1508 1510 1511 1513 1514 1516 1517 1518
1449 1451 1452 1453 1455 1457 1458 1459 1460 1461 1462 1463 1464 1465 1466 1468 1469 1471 1472 1473 1475 1477 1479 1480 1482 1484 1486 1487 1489 1491 1493 1495 1497 1499 1500 1502 1504 1506 1507 1509 1510 1511 1512 1513
1448 1450 1451 1453 1454 1455 1457 1458 1459 1460 1461 1462 1464 1465 1466 1467 1468 1470 1471 1473 1474 1476 1477 1478 1480 1482 1484 1485 1487 1488 1490 1492 1494 1495 1497 1499 1500 1502 1503 1504 1506 1507 1508 1508
1448 1449 1451 1452 1453 1455 1456 1458 1459 1460 1461 1462 1463 1464 1465 1466 1467 1468 1470 1472 1473 1475 1476 1477 1479 1480 1482 1483 1484 1486 1488 1489 1491 1492 1494 1495 1497 1498 1499 1500 1501 1502 1503 1504
1448 1449 1450 1452 1453 1454 1455 1457 1458 1459 1460 1461 1462 1463 1464 1465 1466 1468 1469 1470 1471 1473 1474 1475 1477 1478 1479 1480 1482 1483 1485 1486 1488 1489 1491 1492 1493 1494 1496 1497 1498 1499 1499 1500
1448 1449 1450 1451 1452 1453 1455 1456 1457 1458 1459 1460 1461 1462 1463 1464 1465 1466 1467 1468 1469 1470 1471 1473 1474 1475 1476 1478 1479 1480 1482 1483 1484 1486 1487 1488 1489 1490 1492 1493 1493 1494 1495 1495
1447 1448 1450 1451 1452 1453 1454 1455 1456 1457 1458 1459 1460 1460 1461 1462 1463 1464 1465 1466 1467 1468 1469 1470 1471 1472 1473 1475 1476 1477 1479 1480 1481 1482 1483 1485 1486 1487 1488 1489 1489 1490 1490 1491
1448 1448 1449 1450 1452 1452 1453 1454 1455 1455 1456 1457 1458 1459 1460 1461 1461 1462 1463 1464 1465 1466 1467 1468 1469 1470 1471 1472 1473 1475 1476 1477 1478 1479 1480 1481 1482 1483 1484 1484 1485 1485 1486 1486